Погода в Джаге

Россия / Карачаево-Черкесская Республика     43°57′15″N   42°33′17″E
темп.,
°C
ветер,
м/с
пор.,
м/с
влажн.,
%
обл.,
%
осадки,
мм/ч
давл.,
гПа
погр.,
м
8 марта, пн
пн800:00−9зюз22790 0.0 102327
03:00−10з23800 0.0 102251
06:00−11ю118940 0.0 102224
09:00−7вюв118564 0.0 1021181
12:00−3всв237899 0.0 1019695
15:00−2св227399 0.1 1017816
18:00−6ссв118099 0.1 101822
21:00−7ююз228699 0.1 102025
9 марта, вт
вт900:00−8ююз228495 0.0 101925
03:00−9ююз228070 0.0 101924
06:00−9ююз227039 0.0 101925
09:00−4юз116720 0.0 101885
12:00−1сз12651 0.0 1017518
15:00−1зсз22661 0.0 1017685
18:00−5зсз228663 0.0 101965
21:00−5з359681 1.4 1022203
10 марта, ср
ср1000:00−7юз339299 0.4 102374
03:00−8зюз229299 0.9 102473
06:00−10зюз2386100 0.2 102598
09:00−7з228079 0.3 1024176
12:00−5сз238676 0.1 1023526
15:00−5с238988 0.3 1022434
18:00−6св2295100 0.2 102279
21:00−7всв2497100 0.6 1023128
11 марта, чт
чт1100:00−7в4795100 0.3 1021370
03:00−7в3696100 0.7 1021283
06:00−8в4696100 1.9 1021358
09:00−8в71095100 3.9 1020622
12:00−7в91295100 1.7 1020821
15:00−8в91395100 3.7 1019903
18:00−9в91495100 2.4 1020884
21:00−11в91394100 3.8 1021759
12 марта, пт
пт1200:00−12в81294100 1.1 1021649
03:00−13в91394100 1.9 1021646
06:00−13в81294100 0.8 1023784
09:00−12в81193100 1.6 1024792
12:00−11в91292100 0.4 1025832
15:00−10в81193100 0.7 1026796
18:00−12в61194100 0.3 1029501
21:00−16юв339496 0.3 103234